Weather reports worldwide

Advertisment
Aboyne, United Kingdom (3080): temperature & dewpoint: 04.12.2018 03:00:00 - 10.12.2018 03:00:00 (GMT)Aboyne, United Kingdom (3080): temperature -20cm & temperature -100cm: 04.12.2018 03:00:00 - 10.12.2018 03:00:00 (GMT)Aboyne, United Kingdom (3080): wind speed & gusts: 04.12.2018 03:00:00 - 10.12.2018 03:00:00 (GMT)Aboyne, United Kingdom (3080): wind direction: 04.12.2018 03:00:00 - 10.12.2018 03:00:00 (GMT)Aboyne, United Kingdom (3080): reduced air pressure: 04.12.2018 03:00:00 - 10.12.2018 03:00:00 (GMT)Aboyne, United Kingdom (3080): visibility: 04.12.2018 03:00:00 - 10.12.2018 03:00:00 (GMT)Aboyne, United Kingdom (3080): precipitation: 04.12.2018 03:00:00 - 10.12.2018 03:00:00 (GMT)
Date & Time tt [°C] td [°C] tt -20cm [°C] tt -100cm [°C] ff [km/h] ff [kn] fx [km/h] fx [kn] dd ppp [hPa] vv [km] rr [mm]
10.12.2018 03:00:00 3,0 0,1 - - 15 8 - - WSW 1020,6 50 0,0
10.12.2018 02:00:00 3,2 0,4 - - 15 8 - - WSW 1019,9 50 0,0
10.12.2018 01:00:00 2,9 0,8 - - 13 7 - - W 1019,3 40 0,0
10.12.2018 00:00:00 2,8 0,7 - - 13 7 - - W 1018,7 50 0,2
09.12.2018 23:00:00 2,0 0,6 - - 13 7 - - W 1018,1 50 0,0
09.12.2018 22:00:00 2,3 0,7 - - 15 8 - - W 1017,5 35 0,0
09.12.2018 21:00:00 2,6 0,8 - - 15 8 - - W 1016,4 40 0,0
09.12.2018 20:00:00 2,9 0,0 - - 21 11 - - WNW 1015,6 45 0,0
09.12.2018 19:00:00 2,8 -0,1 - - 21 11 - - W 1014,9 40 0,0
09.12.2018 18:00:00 2,0 -0,8 - - 13 7 - - W 1014,0 40 0,0
09.12.2018 17:00:00 2,3 -0,6 - - 16 9 - - W 1013,1 35 0,0
09.12.2018 16:00:00 2,7 -0,3 - - 18 10 - - W 1012,1 30 0,0
09.12.2018 15:00:00 3,6 -0,4 - - 16 9 - - W 1010,9 29 0,0
09.12.2018 14:00:00 4,7 0,5 - - 21 11 - - W 1009,6 30 0,0
09.12.2018 13:00:00 4,6 0,7 - - 13 7 - - W 1008,5 28 0,0
09.12.2018 12:00:00 4,2 1,4 - - 18 10 - - W 1008,0 19 0,0
09.12.2018 11:00:00 3,3 1,5 - - 15 8 - - WNW 1006,9 20 0,0
09.12.2018 10:00:00 3,0 1,7 - - 18 10 - - NW 1005,3 5 0,6
09.12.2018 09:00:00 2,4 1,4 5,2 6,4 9 5 - - W 1003,8 25 0,6
09.12.2018 08:00:00 3,2 1,9 - - 13 7 - - NNW 1002,3 5 1,2
09.12.2018 07:00:00 3,8 1,6 - - 18 10 - - WNW 1000,0 35 0,0
09.12.2018 06:00:00 3,7 1,1 - - 21 11 - - WNW 998,4 35 0,0
09.12.2018 05:00:00 4,1 1,4 - - 21 11 - - W 996,8 30 0,0
09.12.2018 04:00:00 3,9 1,3 - - 15 8 - - W 995,1 24 0,0
09.12.2018 03:00:00 4,0 2,0 - - 13 7 - - W 993,8 35 0,0
09.12.2018 02:00:00 4,5 2,4 - - 11 6 - - WNW 992,7 40 0,0
09.12.2018 01:00:00 4,5 2,5 - - 11 6 - - WSW 991,3 45 0,0
09.12.2018 00:00:00 4,5 2,9 - - 11 6 - - W 990,0 45 0,2
08.12.2018 23:00:00 4,8 2,6 - - 11 6 - - W 989,1 45 0,0
08.12.2018 22:00:00 4,0 2,2 - - 9 5 - - WNW 988,6 45 0,0
08.12.2018 21:00:00 4,2 1,8 - - 5 3 - - W 987,9 45 0,0
08.12.2018 20:00:00 5,7 3,4 - - 11 6 - - W 987,2 50 0,0
08.12.2018 19:00:00 5,5 3,7 - - 9 5 - - WSW 986,7 50 0,0
08.12.2018 18:00:00 5,7 3,3 - - 16 9 - - WNW 986,2 50 0,0
08.12.2018 17:00:00 6,5 3,5 - - 9 5 - - WNW 986,2 50 0,0
08.12.2018 16:00:00 6,9 3,4 - - 15 8 - - W 985,9 40 0,0
08.12.2018 15:00:00 7,6 3,6 - - 16 9 - - WNW 986,7 45 0,0
08.12.2018 14:00:00 7,7 3,6 - - 21 11 - - W 986,6 45 0,0
08.12.2018 13:00:00 7,8 3,6 - - 26 14 46 25 WNW 986,1 45 0,0
08.12.2018 12:00:00 8,4 3,6 - - 29 16 46 25 WNW 986,7 45 0,0
08.12.2018 11:00:00 7,9 3,7 - - 18 10 - - WNW 987,1 50 0,0
08.12.2018 10:00:00 7,5 4,0 - - 16 9 - - WNW 986,5 50 0,0
08.12.2018 09:00:00 6,3 3,6 5,0 6,4 15 8 - - W 985,9 24 0,0
08.12.2018 08:00:00 6,5 3,6 - - 22 12 61 33 W 985,0 50 0,0
08.12.2018 07:00:00 6,4 4,3 - - 28 15 52 28 W 983,8 22 0,4
08.12.2018 06:00:00 6,4 4,5 - - 28 15 52 28 WNW 982,7 10 0,4
08.12.2018 05:00:00 7,0 3,5 - - 34 18 63 34 W 981,2 30 0,0
08.12.2018 04:00:00 6,4 3,5 - - 31 17 63 34 W 980,3 35 0,0
08.12.2018 03:00:00 6,2 2,4 - - 21 11 63 34 W 980,0 45 0,0
08.12.2018 02:00:00 7,5 2,1 - - 28 15 57 31 W 978,8 50 0,0
08.12.2018 01:00:00 7,2 3,1 - - 24 13 48 26 W 978,2 50 0,0
08.12.2018 00:00:00 7,6 3,1 - - 34 18 61 33 WSW 977,6 50 0,0
07.12.2018 23:00:00 7,7 2,9 - - 29 16 50 27 W 977,2 40 0,0
07.12.2018 22:00:00 7,2 2,4 - - 24 13 52 28 WSW 977,1 50 0,0
07.12.2018 21:00:00 7,7 2,6 - - 28 15 61 33 WSW 977,4 40 0,0
07.12.2018 20:00:00 7,9 2,4 - - 35 19 59 32 WSW 977,5 45 0,0
07.12.2018 19:00:00 6,6 1,7 - - 29 16 68 37 WSW 977,7 50 0,0
07.12.2018 18:00:00 6,7 1,9 - - 28 15 52 28 WSW 977,9 50 0,0
07.12.2018 17:00:00 5,8 1,4 - - 15 8 46 25 SSW 979,2 50 0,0
07.12.2018 16:00:00 5,4 1,1 - - 21 11 52 28 SW 979,8 50 0,0
07.12.2018 15:00:00 6,0 0,9 - - 29 16 63 34 WSW 980,2 50 0,0
07.12.2018 14:00:00 6,5 1,2 - - 31 17 55 30 WSW 981,4 45 0,0
07.12.2018 13:00:00 6,9 1,3 - - 24 13 52 28 WSW 982,2 45 0,0
07.12.2018 12:00:00 7,1 1,6 - - 28 15 46 25 SW 983,1 50 0,0
07.12.2018 11:00:00 6,4 1,7 - - 18 10 - - WSW 984,0 45 0,0
07.12.2018 10:00:00 6,7 1,5 - - 18 10 50 27 SW 984,3 40 0,0
07.12.2018 09:00:00 7,1 1,1 4,7 6,7 24 13 - - SW 984,7 50 0,0
07.12.2018 08:00:00 7,1 2,3 - - 16 9 - - SW 984,9 40 0,0
07.12.2018 07:00:00 8,6 4,6 - - 24 13 - - SSW 984,5 45 0,0
07.12.2018 06:00:00 8,0 6,1 - - 11 6 - - S 985,7 50 0,0
07.12.2018 05:00:00 7,0 5,7 - - 18 10 - - ESE 988,1 6 0,0
07.12.2018 04:00:00 6,9 5,2 - - 15 8 - - ESE 990,6 8 0,0
07.12.2018 03:00:00 7,2 5,3 - - 15 8 - - SE 993,5 11 0,0
07.12.2018 02:00:00 6,8 5,4 - - 4 2 - - SE 995,5 16 0,0
07.12.2018 01:00:00 5,2 4,0 - - 4 2 - - NE 997,7 17 0,0
07.12.2018 00:00:00 4,5 2,9 - - 8 4 - - ENE 999,4 21 0,0
06.12.2018 23:00:00 3,7 2,2 - - 9 5 - - E 999,8 20 0,0
06.12.2018 22:00:00 3,0 1,3 - - 4 2 - - N 1001,0 19 0,0
06.12.2018 21:00:00 5,2 1,4 - - 5 3 - - NW 1001,2 22 0,0
06.12.2018 20:00:00 8,0 2,6 - - 24 13 - - W 1001,3 29 0,0
06.12.2018 19:00:00 2,3 0,3 - - 5 3 - - WSW 1001,4 30 0,0
06.12.2018 18:00:00 7,9 2,5 - - 8 4 - - N 1000,7 29 0,0
06.12.2018 17:00:00 8,6 2,9 - - 16 9 - - W 999,8 30 0,0
06.12.2018 16:00:00 8,6 3,3 - - 9 5 - - W 998,8 23 0,0
06.12.2018 15:00:00 10,3 4,8 - - 22 12 - - W 998,0 30 0,0
06.12.2018 14:00:00 11,6 5,5 - - 28 15 48 26 W 997,5 35 0,0
06.12.2018 13:00:00 11,4 8,2 - - 9 5 - - NW 996,8 40 0,0
06.12.2018 12:00:00 10,3 7,2 - - 9 5 - - S 997,4 50 0,0
06.12.2018 11:00:00 6,9 5,6 - - 11 6 - - E 998,6 50 0,0
06.12.2018 10:00:00 6,3 5,4 - - 9 5 - - NNE 999,3 45 0,0
06.12.2018 09:00:00 5,3 4,4 4,7 6,7 11 6 - - ESE 999,7 50 0,2
06.12.2018 08:00:00 5,5 5,0 - - 9 5 - - ESE 1001,1 45 0,2
06.12.2018 07:00:00 2,1 2,1 - - 9 5 - - E 1003,0 7 0,0
06.12.2018 06:00:00 0,9 0,8 - - 5 3 - - WNW 1004,1 1,4 0,0
06.12.2018 05:00:00 0,9 0,8 - - 4 2 - - E 1005,1 0,6 0,0
06.12.2018 04:00:00 1,0 0,9 - - 2 1 - - ESE 1006,6 1,5 0,2
06.12.2018 03:00:00 0,9 0,8 - - 2 1 - - W 1007,1 1,7 0,0
06.12.2018 02:00:00 0,8 0,7 - - 2 1 - - WSW 1007,8 1,8 0,0
06.12.2018 01:00:00 0,7 0,6 - - 4 2 - - W 1008,7 4,6 0,2
06.12.2018 00:00:00 0,6 0,5 - - 4 2 - - W 1008,6 5 0,4
05.12.2018 23:00:00 0,5 0,4 - - 2 1 - - W 1009,0 2,6 0,4
05.12.2018 22:00:00 0,3 0,3 - - 8 4 - - WNW 1009,1 1,7 0,2
05.12.2018 21:00:00 0,3 0,1 - - 2 1 - - W 1009,4 4,3 0,0
05.12.2018 20:00:00 0,6 0,5 - - 2 1 - - N 1009,7 8 0,0
05.12.2018 19:00:00 0,0 -0,2 - - 4 2 - - NW 1011,3 7 0,0
05.12.2018 18:00:00 -0,2 -0,4 - - 9 5 - - NNW 1010,8 16 0,0
05.12.2018 17:00:00 -0,4 -0,5 - - 8 4 - - W 1011,2 17 0,0
05.12.2018 16:00:00 -0,6 -0,9 - - 4 2 - - W 1011,6 6 0,0
05.12.2018 15:00:00 -1,2 -1,9 - - 4 2 - - WNW 1012,3 7 0,0
05.12.2018 14:00:00 -1,5 -2,4 - - 5 3 - - W 1012,9 45 0,0
05.12.2018 13:00:00 -1,8 -2,9 - - 4 2 - - W 1013,8 45 0,0
05.12.2018 12:00:00 -2,7 -3,6 - - 5 3 - - W 1015,4 50 0,0
05.12.2018 11:00:00 -3,7 -4,5 - - 8 4 - - W 1016,4 40 0,0
05.12.2018 10:00:00 -5,1 -6,0 - - 5 3 - - W 1017,3 45 0,0
05.12.2018 09:00:00 -5,7 -6,7 5,0 7,0 9 5 - - WNW 1017,8 50 0,0
05.12.2018 08:00:00 -5,4 -6,3 - - 9 5 - - WNW 1018,1 50 0,0
05.12.2018 07:00:00 -5,8 -6,6 - - 8 4 - - NW 1018,6 50 0,0
05.12.2018 06:00:00 -5,5 -6,3 - - 8 4 - - W 1018,8 45 0,0
05.12.2018 05:00:00 -5,9 -6,8 - - 8 4 - - W 1019,1 50 0,0
05.12.2018 04:00:00 -4,8 -5,4 - - 11 6 - - NW 1019,3 50 0,0
05.12.2018 03:00:00 -6,5 -7,4 - - 4 2 - - W 1019,9 50 0,0
05.12.2018 02:00:00 -4,6 -5,0 - - 5 3 - - W 1019,9 50 0,0
05.12.2018 01:00:00 -4,9 -5,5 - - 2 1 - - NNE 1019,9 45 0,0
05.12.2018 00:00:00 -4,7 -5,4 - - 4 2 - - W 1020,0 50 0,0
04.12.2018 23:00:00 -3,7 -3,9 - - 8 4 - - WNW 1020,0 50 0,0
04.12.2018 22:00:00 -4,3 -5,2 - - 5 3 - - WSW 1020,1 45 0,0
04.12.2018 21:00:00 -3,5 -4,0 - - 4 2 - - NNW 1019,6 45 0,0
04.12.2018 20:00:00 -2,2 -3,3 - - 5 3 - - W 1019,4 50 0,0
04.12.2018 19:00:00 -1,7 -2,9 - - 11 6 - - W 1019,2 50 0,0
04.12.2018 18:00:00 -0,4 -1,7 - - 13 7 - - W 1018,8 50 0,0
04.12.2018 17:00:00 -1,9 -2,4 - - 2 1 - - E 1018,6 50 0,0
04.12.2018 16:00:00 -0,8 -2,1 - - 4 2 - - WSW 1018,1 40 0,0
04.12.2018 15:00:00 1,1 -1,3 - - 4 2 - - E 1017,5 45 0,0
04.12.2018 14:00:00 3,1 -0,8 - - 2 1 - - WSW 1017,0 50 0,0
04.12.2018 13:00:00 3,8 -0,4 - - 9 5 - - WSW 1016,6 35 0,0
04.12.2018 12:00:00 2,8 -0,7 - - 8 4 - - W 1016,5 35 0,0
04.12.2018 11:00:00 1,9 -1,0 - - 9 5 - - WNW 1016,6 45 0,0
04.12.2018 10:00:00 1,0 -0,8 - - 5 3 - - WSW 1016,4 45 0,0
04.12.2018 09:00:00 -2,3 -2,9 5,7 7,2 9 5 - - W 1015,9 45 0,0
04.12.2018 08:00:00 -2,6 -3,5 - - 5 3 - - W 1015,3 50 0,0
04.12.2018 07:00:00 -2,8 -3,6 - - 4 2 - - SSE 1014,7 50 0,0
04.12.2018 06:00:00 -2,5 -3,8 - - 4 2 - - WSW 1014,2 40 0,0
04.12.2018 05:00:00 0,3 -2,1 - - 5 3 - - NNW 1013,4 50 0,0
04.12.2018 04:00:00 0,4 -2,0 - - 9 5 - - NW 1013,0 50 0,0
04.12.2018 03:00:00 -1,3 -2,4 - - 5 3 - - WNW 1012,7 50 0,0

tt = temperature
td = dewpoint
tt -20cm = temperature -20cm
tt -100cm = temperature -100cm
ff = wind speed
fx = gusts
dd = wind direction
ppp = reduced air pressure
vv = visibility
rr = precipitation

Next stations